Location: ???????????
(55.5758°N, 38.4970°E)
Time: 21:27:19
(UTC+00:00)

Cosmos 2056 Rocket - Pass Details

Date: 15 November 2025
Orbit: 739 x 795 km, 74.0° (Epoch: 12 December)

Event Time Altitude Azimuth Distance (km) Brightness Sun altitude
Rises 03:43:36 0° 232° (SW) 3,293 6.4 -10.7°
Reaches altitude 10° 03:46:08 10° 239° (WSW) 2,365 5.7 -10.3°
Maximum altitude 03:51:14 41° 310° (NW) 1,138 4.0 -9.7°
Drops below altitude 10° 03:56:19 10° 20° (NNE) 2,359 6.1 -9.0°
Sets 03:58:51 0° 28° (NNE) 3,283 6.9 -8.6°
